Regional Weather Roundup
Issued by NWS

Home | Current Version | Previous Version | Text Only | Print | Product List | Glossary Off
Versions: 1 2 3 4 5 6 7 8 9 10 11 12 13 14 15 16 17 18 19 20 21 22 23 24 25 26 27 28 29 30 31 32 33 34 35 36 37 38 39 40 41 42 43 44 45 46 47 48 49 50

000
ASUS43 KLOT 300803
RWRIL

ILLINOIS REGIONAL WEATHER ROUNDUP
NATIONAL WEATHER SERVICE CHICAGO/ROMEOVILLE IL
300 AM CDT THU MAR 30 2017

NOTE: "FAIR" INDICATES FEW OR NO CLOUDS BELOW 12,000 FEET WITH NO
SIGNIFICANT WEATHER AND/OR OBSTRUCTIONS TO VISIBILITY.

* THESE STATIONS ARE NOT UNDER NWS QUALITY CONTROL. THEY ALSO MAY NOT
  REPORT WEATHER SUCH AS PRECIPITATION OR FOG.

ILZ001-002-007-009-015-016-024-300900-
NORTHWEST ILLINOIS

CITY           SKY/WX    TMP DP  RH WIND       PRES   REMARKS
MOLINE         RAIN      43  40  89 E21G32    29.80F
STERLING*      LGT RAIN  42  41  96 E20       29.84F FOG
SAVANNA*       RAIN      42  40  93 E10G16    29.86F
$$

ILZ003-004-008-010-011-017-018-300900-
NORTH CENTRAL ILLINOIS

CITY           SKY/WX    TMP DP  RH WIND       PRES   REMARKS
ROCKFORD       RAIN      42  38  85 E12       29.93R
FREEPORT*      RAIN      40  38  95 E15       29.92F
ROCHELLE*      LGT SNOW  41  40  94 E16G24    29.89S
DE KALB*       RAIN      41  39  93 E16       29.91F
PERU*          TSTM      42  40  95 E15G24    29.83F
$$

ILZ005-006-012>014-019>023-300900-
NORTHEAST ILLINOIS

CITY           SKY/WX    TMP DP  RH WIND       PRES   REMARKS
CHICAGO-OHARE  HVY RAIN  42  40  92 E20G29    29.92F FOG
CHICAGO-MIDWAY TSTM      42  40  92 NE15G24   29.92F FOG
AURORA         HVY RAIN  43  40  89 E20       29.90S FOG
LANSING*       CLOUDY    44  42  93 E15G23    29.89F
JOLIET*        TSTM      44  43  97 E10       29.91S
WAUKEGAN       LGT RAIN  39  37  92 E16G26    29.96F FOG     WCI  30
DUPAGE AIRPORT HVY RAIN  41  41 100 E13G24    29.90F FOG
KANKAKEE*      RAIN      45  40  85 E15G21    29.88R
WHEELING       RAIN      40  39  97 E13G21    29.95F FOG
MORRIS*        LGT SNOW  43  41  95 E13       29.88F
ROMEOVILLE*    CLOUDY    42  42 100 E17       29.90F
NORTHERLY ISL    N/A     40  38  93 NE10        N/A
$$

LMZ740>746-300900-
SOUTHERN LAKE MICHIGAN

STATION/POSITION SKY/WX   TEMP    WIND        PRES    VSBY  WAVE
                          AIR SEA DIR/SP/G                  HT/PER
                          (F)     (DEG/KT/KT) (MB)    (MI)  (FT/S)
HARRISON CRIB              40      70/ 16/ 18   N/A
BURNHAM HARBOR             40      60/ 11/ 19   N/A
CALUMET HARBOR             40      40/  9/ 12 1013.3F
BURNS HARBOR               43      60/ 16/ 20 1013.5F
MICHIGAN CITY              43      40/ 14/ 17   N/A
$$

ILZ025>027-034>036-040-047-049-050-058-095>099-300900-
WEST-CENTRAL ILLINOIS

CITY           SKY/WX    TMP DP  RH WIND       PRES   REMARKS
QUINCY         CLOUDY    52  50  93 E14G22    29.64F
GALESBURG*     RAIN      46  45  99 E12G18    29.75F
MACOMB*        CLOUDY    49  48  97 E18       29.74F
JACKSONVILLE*  DRIZZLE   51  51  97 E13       29.68F
$$

ILZ028>032-037-038-041>044-048-051>054-059>061-300900-
CENTRAL ILLINOIS

CITY           SKY/WX    TMP DP  RH WIND       PRES   REMARKS
PONTIAC        LGT RAIN  44  44  99 E21       29.83F
BLOOMINGTON    CLOUDY    45  43  93 E21       29.79F
DECATUR        LGT RAIN  52  49  89 NE10      29.73F
PEORIA         CLOUDY    45  43  93 E18       29.78F
LACON*         TSTM      44  42  95 E16G22    29.80F
SPRINGFIELD    HVY RAIN  54  52  93 E17       29.71F FOG
TAYLORVILLE    NOT AVBL
$$

ILZ033-039-045-046-055>057-062-063-300900-
EAST-CENTRAL ILLINOIS

CITY           SKY/WX    TMP DP  RH WIND       PRES   REMARKS
CHAMPAIGN      LGT RAIN  52  47  83 E17       29.77F
RANTOUL*       CLOUDY    52  49  89 E7        29.79S
MATTOON        LGT RAIN  55  50  83 SE12      29.72F
PARIS*         CLOUDY    55  48  78 E12       29.79F
$$

ILZ079-100>102-300900-
SOUTHWEST ILLINOIS

CITY           SKY/WX    TMP DP  RH WIND       PRES   REMARKS
ALTON          LGT RAIN  56  55  95 CALM      29.69F
BELLEVILLE     LGT RAIN  61  61 100 VRB6      29.68R FOG
CAHOKIA*       RAIN      62  57  83 S9        29.67F
SPARTA*        TSTM      64  57  77 SW9       29.73R
$$

ILZ064>066-069>071-074>076-080>082-084>086-088>090-092>094-300900-
SOUTH-CENTRAL ILLINOIS

CITY           SKY/WX    TMP DP  RH WIND       PRES   REMARKS
CARBONDALE     HVY RAIN  64  61  90 S10       29.71F FOG
CAIRO*         CLOUDY    69  58  68 S13       29.70F
EFFINGHAM*     MOCLDY    58  53  84 E12       29.73F
MARION         CLOUDY    66  59  77 SW5       29.72S
MT. VERNON     TSTM      61  58  90 SW12      29.76R
CENTRALIA*     CLOUDY    62  59  88 S16G31    29.70R
SALEM*         CLOUDY    63  54  73 SE12G18   29.71F
METROPOLIS*    CLOUDY    72  57  60 S8        29.73S
$$

ILZ067-068-072-073-078-083-087-091-300900-
SOUTHEAST ILLINOIS

CITY           SKY/WX    TMP DP  RH WIND       PRES   REMARKS
LAWRENCEVILLE  CLOUDY    58  51  78 SE14      29.76F
FLORA*         CLOUDY    61  54  77 SE12      29.73F
FAIRFIELD*     CLOUDY    61  55  82 SE6       29.72F
HARRISBURG*    CLOUDY    62  57  83 E10       29.72F
ROBINSON*      MOCLDY    55  49  78 SE10      29.78F
CARMI*         PTCLDY    60  55  82 SE12      29.74F
$$

ABBREVIATIONS USED IN REMARKS
   TC - TEMPERATURE IN CELSIUS
  WCI - WIND CHILL INDEX
   HX - HEAT INDEX
  VSB - VISIBILITY
$$





USA.gov is the U.S. government's official web portal to all federal, state and local government web resources and services.